| time (UTC) | temp F | wind direction | speed MPH | gust MPH | rain 1hr in | rain 24hr in | rain mn in | humidity % | barometer mb |
| 20260509031223 | 51 | 90 | 1.0 | 4.0 | 0.00 | 0.00 | 0.00 | ||
| 20260509030822 | 51 | 90 | 0.0 | 2.0 | 0.00 | 0.00 | 0.00 | ||
| 20260509030420 | 51 | 90 | 0.0 | 0.0 | 0.00 | 0.00 | 0.00 | ||
| 20260509030018 | 51 | 90 | 3.0 | 4.0 | 0.00 | 0.00 | 0.00 | ||
| 20260509025617 | 51 | 90 | 3.0 | 4.0 | 0.00 | 0.00 | 0.00 | ||
| 20260509025215 | 51 | 90 | 2.0 | 4.0 | 0.00 | 0.00 | 0.00 | ||
| 20260509024807 | 51 | 55 | 2.0 | 4.0 | 0.00 | 0.00 | 0.00 | ||
| 20260509024404 | 51 | 45 | 2.0 | 4.0 | 0.00 | 0.00 | 0.00 | ||
| 20260509024003 | 51 | 45 | 2.0 | 4.0 | 0.00 | 0.00 | 0.00 | ||
| 20260509023602 | 51 | 45 | 2.0 | 4.0 | 0.00 | 0.00 | 0.00 | ||
| 20260509023200 | 51 | 22 | 2.0 | 4.0 | 0.00 | 0.00 | 0.00 | ||
| 20260509022759 | 51 | 0 | 0.0 | 2.0 | 0.00 | 0.00 | 0.00 | ||
| 20260509022356 | 51 | 0 | 1.0 | 2.0 | 0.00 | 0.00 | 0.00 | ||
| 20260509021955 | 51 | 0 | 1.0 | 3.0 | 0.00 | 0.00 | 0.00 | ||
| 20260509021554 | 51 | 0 | 0.0 | 2.0 | 0.00 | 0.00 | 0.00 | ||
| 20260509021152 | 52 | 0 | 0.0 | 0.0 | 0.00 | 0.00 | 0.00 | ||
| 20260509020743 | 52 | 0 | 0.0 | 2.0 | 0.00 | 0.00 | 0.00 | ||
| 20260509020341 | 52 | 0 | 0.0 | 2.0 | 0.00 | 0.00 | 0.00 | ||
| 20260509015539 | 52 | 0 | 0.0 | 2.0 | 0.00 | 0.00 | 0.00 | ||
| 20260509015136 | 51 | 0 | 0.0 | 1.0 | 0.00 | 0.00 | 0.00 | ||
| 20260509014735 | 51 | 0 | 0.0 | 2.0 | 0.00 | 0.00 | 0.00 | ||
| 20260509014334 | 52 | 0 | 0.0 | 1.0 | 0.00 | 0.00 | 0.00 | ||
| 20260509013933 | 52 | 21 | 0.0 | 2.0 | 0.00 | 0.00 | 0.00 | ||
| 20260509013530 | 51 | 0 | 2.0 | 3.0 | 0.00 | 0.00 | 0.00 | ||
| 20260509013129 | 51 | 0 | 1.0 | 2.0 | 0.00 | 0.00 | 0.00 | ||
| 20260509012721 | 51 | 5 | 3.0 | 4.0 | 0.00 | 0.00 | 0.00 | ||
| 20260509012319 | 52 | 0 | 1.0 | 3.0 | 0.00 | 0.00 | 0.00 | ||
| 20260509011918 | 51 | 1 | 1.0 | 3.0 | 0.00 | 0.00 | 0.00 | ||
| 20260509011516 | 51 | 16 | 2.0 | 6.0 | 0.00 | 0.00 | 0.00 | ||
| 20260509011114 | 52 | 0 | 0.0 | 1.0 | 0.00 | 0.00 | 0.00 | ||
| 20260509010713 | 52 | 0 | 1.0 | 2.0 | 0.00 | 0.00 | 0.00 | ||
| 20260509010311 | 51 | 0 | 2.0 | 3.0 | 0.00 | 0.00 | 0.00 | ||
| 20260509005909 | 52 | 355 | 2.0 | 5.0 | 0.00 | 0.00 | 0.00 | ||
| 20260509005508 | 51 | 0 | 1.0 | 4.0 | 0.00 | 0.00 | 0.00 | ||
| 20260509005106 | 51 | 4 | 3.0 | 6.0 | 0.00 | 0.00 | 0.00 | ||
| 20260509004658 | 51 | 6 | 2.0 | 6.0 | 0.00 | 0.00 | 0.00 | ||
| 20260509004255 | 51 | 359 | 2.0 | 4.0 | 0.00 | 0.00 | 0.00 | ||
| 20260509003854 | 52 | 0 | 3.0 | 7.0 | 0.00 | 0.00 | 0.00 | ||
| 20260509003453 | 51 | 353 | 3.0 | 6.0 | 0.00 | 0.00 | 0.00 | ||
| 20260509003051 | 51 | 7 | 3.0 | 5.0 | 0.00 | 0.00 | 0.00 | ||
| 20260509002649 | 52 | 356 | 3.0 | 7.0 | 0.00 | 0.00 | 0.00 | ||
| 20260509002247 | 52 | 2 | 1.0 | 4.0 | 0.00 | 0.00 | 0.00 | ||
| 20260509001846 | 52 | 2 | 2.0 | 6.0 | 0.00 | 0.00 | 0.00 | ||
| 20260509001445 | 52 | 21 | 1.0 | 2.0 | 0.00 | 0.00 | 0.00 | ||
| 20260509001044 | 52 | 1 | 3.0 | 4.0 | 0.00 | 0.00 | 0.00 | ||
| 20260509000634 | 52 | 359 | 2.0 | 5.0 | 0.00 | 0.00 | 0.00 | ||
| 20260509000233 | 52 | 8 | 4.0 | 8.0 | 0.00 | 0.00 | 0.00 | ||
| 20260508235831 | 52 | 0 | 3.0 | 8.0 | 0.00 | 0.00 | 0.00 | ||
| 20260508235430 | 52 | 2 | 4.0 | 6.0 | 0.00 | 0.00 | 0.00 | ||
| 20260508235026 | 52 | 2 | 4.0 | 7.0 | 0.00 | 0.00 | 0.00 | ||
| 20260508234625 | 52 | 12 | 3.0 | 6.0 | 0.00 | 0.00 | 0.00 | ||
| 20260508234223 | 52 | 18 | 4.0 | 8.0 | 0.00 | 0.00 | 0.00 | ||
| 20260508233822 | 52 | 18 | 4.0 | 8.0 | 0.00 | 0.00 | 0.00 | ||
| 20260508233420 | 52 | 11 | 2.0 | 5.0 | 0.00 | 0.00 | 0.00 | ||
| 20260508233018 | 52 | 0 | 3.0 | 5.0 | 0.00 | 0.00 | 0.00 | ||
| 20260508232610 | 52 | 358 | 2.0 | 4.0 | 0.00 | 0.00 | 0.00 | ||
| 20260508232208 | 52 | 356 | 2.0 | 5.0 | 0.00 | 0.00 | 0.00 | ||
| 20260508231806 | 53 | 345 | 2.0 | 5.0 | 0.00 | 0.00 | 0.00 | ||
| 20260508231405 | 52 | 357 | 3.0 | 6.0 | 0.00 | 0.00 | 0.00 | ||
| 20260508231003 | 52 | 0 | 3.0 | 7.0 | 0.00 | 0.00 | 0.00 | ||
| 20260508230602 | 53 | 355 | 3.0 | 6.0 | 0.00 | 0.00 | 0.00 | ||
| 20260508230200 | 53 | 358 | 3.0 | 5.0 | 0.00 | 0.00 | 0.00 | ||
| 20260508225758 | 53 | 353 | 2.0 | 5.0 | 0.00 | 0.00 | 0.00 | ||
| 20260508225357 | 53 | 2 | 3.0 | 6.0 | 0.00 | 0.00 | 0.00 | ||
| 20260508224955 | 53 | 0 | 2.0 | 5.0 | 0.00 | 0.00 | 0.00 | ||
| 20260508224547 | 53 | 7 | 3.0 | 5.0 | 0.00 | 0.00 | 0.00 | ||
| 20260508224144 | 53 | 4 | 4.0 | 8.0 | 0.00 | 0.00 | 0.00 | ||
| 20260508223743 | 53 | 16 | 2.0 | 6.0 | 0.00 | 0.00 | 0.00 | ||
| 20260508223342 | 53 | 346 | 1.0 | 4.0 | 0.00 | 0.00 | 0.00 | ||
| 20260508222941 | 53 | 7 | 3.0 | 6.0 | 0.00 | 0.00 | 0.00 | ||
| 20260508222538 | 53 | 14 | 3.0 | 6.0 | 0.00 | 0.00 | 0.00 | ||
| 20260508222136 | 53 | 5 | 3.0 | 5.0 | 0.00 | 0.00 | 0.00 | ||
| 20260508221735 | 53 | 2 | 2.0 | 5.0 | 0.00 | 0.00 | 0.00 | ||
| 20260508220931 | 54 | 1 | 3.0 | 7.0 | 0.00 | 0.00 | 0.00 | ||
| 20260508220523 | 54 | 0 | 1.0 | 4.0 | 0.00 | 0.00 | 0.00 | ||
| 20260508220121 | 54 | 0 | 0.0 | 2.0 | 0.00 | 0.00 | 0.00 | ||
| 20260508215720 | 54 | 0 | 1.0 | 2.0 | 0.00 | 0.00 | 0.00 | ||
| 20260508215319 | 54 | 0 | 1.0 | 3.0 | 0.00 | 0.00 | 0.00 | ||
| 20260508214916 | 54 | 0 | 0.0 | 2.0 | 0.00 | 0.00 | 0.00 | ||
| 20260508214515 | 54 | 0 | 0.0 | 1.0 | 0.00 | 0.00 | 0.00 | ||
| 20260508214114 | 54 | 0 | 0.0 | 2.0 | 0.00 | 0.00 | 0.00 | ||
| 20260508213713 | 54 | 0 | 0.0 | 0.0 | 0.00 | 0.00 | 0.00 | ||
| 20260508213310 | 54 | 0 | 0.0 | 0.0 | 0.00 | 0.00 | 0.00 | ||
| 20260508212909 | 54 | 0 | 0.0 | 1.0 | 0.00 | 0.00 | 0.00 | ||
| 20260508212501 | 54 | 0 | 1.0 | 3.0 | 0.00 | 0.00 | 0.00 | ||
| 20260508212059 | 54 | 2 | 2.0 | 4.0 | 0.00 | 0.00 | 0.00 | ||
| 20260508211657 | 54 | 21 | 2.0 | 3.0 | 0.00 | 0.00 | 0.00 | ||
| 20260508211256 | 54 | 21 | 2.0 | 3.0 | 0.00 | 0.00 | 0.00 | ||
| 20260508210854 | 54 | 21 | 1.0 | 3.0 | 0.00 | 0.00 | 0.00 | ||
| 20260508210453 | 54 | 21 | 1.0 | 2.0 | 0.00 | 0.00 | 0.00 | ||
| 20260508210050 | 54 | 21 | 2.0 | 3.0 | 0.00 | 0.00 | 0.00 | ||
| 20260508205248 | 54 | 21 | 1.0 | 2.0 | 0.00 | 0.00 | 0.00 | ||
| 20260508204846 | 54 | 21 | 2.0 | 2.0 | 0.00 | 0.00 | 0.00 | ||
| 20260508204438 | 54 | 34 | 3.0 | 4.0 | 0.00 | 0.00 | 0.00 | ||
| 20260508204035 | 54 | 45 | 2.0 | 4.0 | 0.00 | 0.00 | 0.00 | ||
| 20260508203634 | 54 | 45 | 2.0 | 5.0 | 0.00 | 0.00 | 0.00 | ||
| 20260508203233 | 54 | 45 | 1.0 | 3.0 | 0.00 | 0.00 | 0.00 | ||
| 20260508202831 | 54 | 45 | 1.0 | 2.0 | 0.00 | 0.00 | 0.00 | ||
| 20260508202429 | 54 | 45 | 1.0 | 3.0 | 0.00 | 0.00 | 0.00 | ||
| 20260508202027 | 54 | 45 | 1.0 | 2.0 | 0.00 | 0.00 | 0.00 | ||
| 20260508201626 | 55 | 45 | 1.0 | 2.0 | 0.00 | 0.00 | 0.00 | ||
| 20260508201225 | 55 | 45 | 0.0 | 1.0 | 0.00 | 0.00 | 0.00 | ||
| 20260508200822 | 54 | 45 | 0.0 | 0.0 | 0.00 | 0.00 | 0.00 | ||
| 20260508200414 | 54 | 45 | 1.0 | 2.0 | 0.00 | 0.00 | 0.00 | ||
| 20260508200012 | 54 | 45 | 0.0 | 0.0 | 0.00 | 0.00 | 0.00 | ||
| 20260508195611 | 54 | 45 | 2.0 | 4.0 | 0.00 | 0.00 | 0.00 | ||
| 20260508195209 | 54 | 45 | 0.0 | 0.0 | 0.00 | 0.00 | 0.00 | ||
| 20260508194807 | 54 | 45 | 0.0 | 0.0 | 0.00 | 0.00 | 0.00 | ||
| 20260508194406 | 54 | 45 | 0.0 | 2.0 | 0.00 | 0.00 | 0.00 | ||
| 20260508194004 | 55 | 45 | 1.0 | 3.0 | 0.00 | 0.00 | 0.00 | ||
| 20260508193603 | 55 | 45 | 2.0 | 4.0 | 0.00 | 0.00 | 0.00 | ||
| 20260508192759 | 54 | 45 | 1.0 | 4.0 | 0.00 | 0.00 | 0.00 | ||
| 20260508192351 | 54 | 45 | 1.0 | 3.0 | 0.00 | 0.00 | 0.00 | ||
| 20260508191949 | 54 | 31 | 2.0 | 5.0 | 0.00 | 0.00 | 0.00 | ||
| 20260508191146 | 54 | 21 | 3.0 | 5.0 | 0.00 | 0.00 | 0.00 | ||
| 20260508190744 | 55 | 14 | 3.0 | 4.0 | 0.00 | 0.00 | 0.00 | ||
| 20260508190343 | 55 | 0 | 2.0 | 5.0 | 0.00 | 0.00 | 0.00 | ||
| 20260508185940 | 55 | 0 | 1.0 | 4.0 | 0.00 | 0.00 | 0.00 | ||
| 20260508185539 | 55 | 0 | 2.0 | 4.0 | 0.00 | 0.00 | 0.00 | ||
| 20260508185138 | 55 | 14 | 1.0 | 4.0 | 0.00 | 0.00 | 0.00 | ||
| 20260508184736 | 55 | 13 | 2.0 | 4.0 | 0.00 | 0.00 | 0.00 | ||
| 20260508184327 | 55 | 10 | 2.0 | 4.0 | 0.00 | 0.00 | 0.00 | ||
| 20260508183925 | 55 | 0 | 0.0 | 0.0 | 0.00 | 0.00 | 0.00 | ||
| 20260508183524 | 55 | 0 | 2.0 | 4.0 | 0.00 | 0.00 | 0.00 | ||
| 20260508183123 | 55 | 21 | 1.0 | 3.0 | 0.00 | 0.00 | 0.00 | ||
| 20260508182721 | 55 | 21 | 1.0 | 3.0 | 0.00 | 0.00 | 0.00 | ||
| 20260508182319 | 55 | 41 | 4.0 | 6.0 | 0.00 | 0.00 | 0.00 | ||
| 20260508181917 | 55 | 45 | 1.0 | 3.0 | 0.00 | 0.00 | 0.00 | ||
| 20260508181516 | 55 | 45 | 0.0 | 0.0 | 0.00 | 0.00 | 0.00 | ||
| 20260508181115 | 55 | 45 | 1.0 | 4.0 | 0.00 | 0.00 | 0.00 | ||
| 20260508180712 | 55 | 45 | 1.0 | 4.0 | 0.00 | 0.00 | 0.00 | ||
| 20260508180304 | 56 | 45 | 2.0 | 4.0 | 0.00 | 0.00 | 0.00 | ||
| 20260508175902 | 56 | 45 | 3.0 | 4.0 | 0.00 | 0.00 | 0.00 | ||
| 20260508175501 | 56 | 67 | 1.0 | 4.0 | 0.00 | 0.00 | 0.00 | ||
| 20260508175059 | 55 | 67 | 2.0 | 4.0 | 0.00 | 0.00 | 0.00 | ||
| 20260508174658 | 55 | 67 | 2.0 | 5.0 | 0.00 | 0.00 | 0.00 | ||
| 20260508174257 | 56 | 67 | 2.0 | 4.0 | 0.00 | 0.00 | 0.00 | ||
| 20260508173855 | 56 | 64 | 1.0 | 3.0 | 0.00 | 0.00 | 0.00 | ||
| 20260508173453 | 56 | 45 | 4.0 | 6.0 | 0.00 | 0.00 | 0.00 | ||
| 20260508173052 | 56 | 45 | 3.0 | 6.0 | 0.00 | 0.00 | 0.00 | ||
| 20260508172650 | 56 | 45 | 2.0 | 5.0 | 0.00 | 0.00 | 0.00 | ||
| 20260508172242 | 56 | 45 | 2.0 | 5.0 | 0.00 | 0.00 | 0.00 | ||
| 20260508171840 | 56 | 45 | 5.0 | 7.0 | 0.00 | 0.00 | 0.00 | ||
| 20260508171438 | 57 | 45 | 2.0 | 3.0 | 0.00 | 0.00 | 0.00 | ||
| 20260508171037 | 57 | 45 | 1.0 | 2.0 | 0.00 | 0.00 | 0.00 | ||
| 20260508170635 | 57 | 45 | 3.0 | 5.0 | 0.00 | 0.00 | 0.00 | ||
| 20260508170234 | 57 | 18 | 2.0 | 5.0 | 0.00 | 0.00 | 0.00 | ||
| 20260508165831 | 57 | 18 | 4.0 | 6.0 | 0.00 | 0.00 | 0.00 | ||
| 20260508165430 | 57 | 16 | 4.0 | 8.0 | 0.00 | 0.00 | 0.00 | ||
| 20260508165029 | 57 | 24 | 5.0 | 7.0 | 0.00 | 0.00 | 0.00 | ||
| 20260508164627 | 57 | 13 | 3.0 | 7.0 | 0.00 | 0.00 | 0.00 | ||
| 20260508164218 | 57 | 41 | 2.0 | 5.0 | 0.00 | 0.00 | 0.00 | ||
| 20260508163816 | 57 | 12 | 3.0 | 9.0 | 0.00 | 0.00 | 0.00 | ||
| 20260508163415 | 57 | 19 | 6.0 | 9.0 | 0.00 | 0.00 | 0.00 | ||
| 20260508163014 | 57 | 19 | 6.0 | 10.0 | 0.00 | 0.00 | 0.00 | ||
| 20260508162610 | 57 | 1 | 5.0 | 8.0 | 0.00 | 0.00 | 0.00 | ||
| 20260508162209 | 58 | 3 | 4.0 | 8.0 | 0.00 | 0.00 | 0.00 | ||
| 20260508161806 | 58 | 8 | 3.0 | 7.0 | 0.00 | 0.00 | 0.00 | ||
| 20260508161405 | 58 | 350 | 3.0 | 5.0 | 0.00 | 0.00 | 0.00 | ||
| 20260508161004 | 58 | 2 | 3.0 | 7.0 | 0.00 | 0.00 | 0.00 | ||
| 20260508160601 | 58 | 343 | 4.0 | 7.0 | 0.00 | 0.00 | 0.00 | ||
| 20260508160153 | 58 | 14 | 2.0 | 7.0 | 0.00 | 0.00 | 0.00 | ||
| 20260508155752 | 58 | 21 | 3.0 | 6.0 | 0.00 | 0.00 | 0.00 | ||
| 20260508155351 | 58 | 24 | 4.0 | 8.0 | 0.00 | 0.00 | 0.00 | ||
| 20260508154948 | 57 | 28 | 5.0 | 8.0 | 0.00 | 0.00 | 0.00 | ||
| 20260508154547 | 58 | 16 | 4.0 | 9.0 | 0.00 | 0.00 | 0.00 | ||
| 20260508154146 | 58 | 25 | 5.0 | 8.0 | 0.00 | 0.00 | 0.00 | ||
| 20260508153744 | 58 | 24 | 5.0 | 9.0 | 0.00 | 0.00 | 0.00 | ||
| 20260508153342 | 58 | 30 | 3.0 | 6.0 | 0.00 | 0.00 | 0.00 | ||
| 20260508152539 | 59 | 30 | 5.0 | 10.0 | 0.00 | 0.00 | 0.00 | ||
| 20260508152131 | 59 | 24 | 5.0 | 11.0 | 0.00 | 0.00 | 0.00 | ||
| 20260508151728 | 59 | 36 | 3.0 | 6.0 | 0.00 | 0.00 | 0.00 | ||
| 20260508151327 | 59 | 32 | 5.0 | 8.0 | 0.00 | 0.00 | 0.00 | ||
| 20260508150926 | 59 | 30 | 6.0 | 10.0 | 0.00 | 0.00 | 0.00 | ||
| 20260508150524 | 59 | 24 | 5.0 | 9.0 | 0.00 | 0.00 | 0.00 | ||
| 20260508150123 | 59 | 1 | 5.0 | 7.0 | 0.00 | 0.00 | 0.00 | ||
| 20260508145720 | 60 | 29 | 5.0 | 10.0 | 0.00 | 0.00 | 0.00 | ||
| 20260508145319 | 60 | 21 | 7.0 | 9.0 | 0.00 | 0.00 | 0.00 | ||
| 20260508144918 | 61 | 16 | 4.0 | 7.0 | 0.00 | 0.00 | 0.00 | ||
| 20260508144516 | 61 | 341 | 4.0 | 9.0 | 0.00 | 0.00 | 0.00 | ||
| 20260508144107 | 60 | 0 | 5.0 | 8.0 | 0.00 | 0.00 | 0.00 | ||
| 20260508143705 | 62 | 354 | 4.0 | 5.0 | 0.00 | 0.00 | 0.00 | ||
| 20260508143304 | 61 | 343 | 4.0 | 8.0 | 0.00 | 0.00 | 0.00 | ||
| 20260508142903 | 60 | 359 | 4.0 | 9.0 | 0.00 | 0.00 | 0.00 | ||
| 20260508142500 | 59 | 338 | 4.0 | 9.0 | 0.00 | 0.00 | 0.00 | ||
| 20260508142100 | 59 | 326 | 5.0 | 9.0 | 0.00 | 0.00 | 0.00 | ||
| 20260508141658 | 59 | 356 | 2.0 | 4.0 | 0.00 | 0.00 | 0.00 | ||
| 20260508141257 | 59 | 348 | 3.0 | 5.0 | 0.00 | 0.00 | 0.00 | ||
| 20260508140855 | 60 | 339 | 2.0 | 4.0 | 0.00 | 0.00 | 0.00 | ||
| 20260508140453 | 60 | 312 | 3.0 | 5.0 | 0.00 | 0.00 | 0.00 | ||
| 20260508140045 | 60 | 0 | 3.0 | 5.0 | 0.00 | 0.00 | 0.00 | ||
| 20260508135643 | 61 | 338 | 2.0 | 4.0 | 0.00 | 0.00 | 0.00 | ||
| 20260508135242 | 61 | 329 | 2.0 | 4.0 | 0.00 | 0.00 | 0.00 | ||
| 20260508134840 | 61 | 347 | 2.0 | 4.0 | 0.00 | 0.00 | 0.00 | ||
| 20260508134438 | 61 | 8 | 4.0 | 8.0 | 0.00 | 0.00 | 0.00 | ||
| 20260508134037 | 61 | 351 | 4.0 | 8.0 | 0.00 | 0.00 | 0.00 | ||
| 20260508133635 | 61 | 7 | 3.0 | 6.0 | 0.00 | 0.00 | 0.00 | ||
| 20260508133233 | 61 | 4 | 4.0 | 6.0 | 0.00 | 0.00 | 0.00 | ||
| 20260508132832 | 61 | 4 | 2.0 | 5.0 | 0.00 | 0.00 | 0.00 | ||
| 20260508132430 | 61 | 340 | 2.0 | 4.0 | 0.00 | 0.00 | 0.00 | ||
| 20260508132022 | 60 | 8 | 3.0 | 6.0 | 0.00 | 0.00 | 0.00 | ||
| 20260508131619 | 60 | 354 | 1.0 | 3.0 | 0.00 | 0.00 | 0.00 | ||
| 20260508131218 | 61 | 338 | 0.0 | 2.0 | 0.00 | 0.00 | 0.00 | ||
| 20260508130817 | 60 | 338 | 1.0 | 2.0 | 0.00 | 0.00 | 0.00 | ||
| 20260508130415 | 60 | 332 | 2.0 | 4.0 | 0.00 | 0.00 | 0.00 | ||
| 20260508130013 | 59 | 353 | 2.0 | 5.0 | 0.00 | 0.00 | 0.00 | ||
| 20260508125611 | 59 | 352 | 3.0 | 4.0 | 0.00 | 0.00 | 0.00 | ||
| 20260508125210 | 59 | 339 | 2.0 | 4.0 | 0.00 | 0.00 | 0.00 | ||
| 20260508124809 | 59 | 323 | 2.0 | 6.0 | 0.00 | 0.00 | 0.00 | ||
| 20260508124407 | 60 | 293 | 2.0 | 6.0 | 0.00 | 0.00 | 0.00 | ||
| 20260508123958 | 59 | 340 | 1.0 | 5.0 | 0.00 | 0.00 | 0.00 | ||
| 20260508123556 | 60 | 0 | 1.0 | 3.0 | 0.00 | 0.00 | 0.00 | ||
| 20260508123155 | 57 | 0 | 2.0 | 4.0 | 0.00 | 0.00 | 0.00 | ||
| 20260508122754 | 57 | 344 | 2.0 | 5.0 | 0.00 | 0.00 | 0.00 | ||
| 20260508122351 | 59 | 3 | 2.0 | 5.0 | 0.00 | 0.00 | 0.00 | ||
| 20260508121950 | 58 | 353 | 2.0 | 6.0 | 0.00 | 0.00 | 0.00 | ||
| 20260508121548 | 57 | 292 | 2.0 | 4.0 | 0.00 | 0.00 | 0.00 | ||
| 20260508121147 | 58 | 292 | 2.0 | 4.0 | 0.00 | 0.00 | 0.00 | ||
| 20260508120342 | 57 | 319 | 2.0 | 4.0 | 0.00 | 0.00 | 0.00 | ||
| 20260508115935 | 56 | 338 | 2.0 | 4.0 | 0.00 | 0.00 | 0.00 | ||
| 20260508115532 | 56 | 295 | 2.0 | 4.0 | 0.00 | 0.00 | 0.00 | ||
| 20260508115130 | 57 | 303 | 4.0 | 6.0 | 0.00 | 0.00 | 0.00 | ||
| 20260508114729 | 57 | 333 | 3.0 | 6.0 | 0.00 | 0.00 | 0.00 | ||
| 20260508114327 | 57 | 338 | 2.0 | 4.0 | 0.00 | 0.00 | 0.00 | ||
| 20260508113926 | 56 | 315 | 2.0 | 4.0 | 0.00 | 0.00 | 0.00 | ||
| 20260508113524 | 56 | 318 | 2.0 | 4.0 | 0.00 | 0.00 | 0.00 | ||
| 20260508113122 | 56 | 334 | 3.0 | 5.0 | 0.00 | 0.00 | 0.00 | ||
| 20260508112721 | 56 | 331 | 3.0 | 7.0 | 0.00 | 0.00 | 0.00 | ||
| 20260508112319 | 57 | 309 | 3.0 | 6.0 | 0.00 | 0.00 | 0.00 | ||
| 20260508111508 | 56 | 303 | 4.0 | 7.0 | 0.00 | 0.00 | 0.00 | ||
| 20260508111107 | 56 | 333 | 4.0 | 6.0 | 0.00 | 0.00 | 0.00 | ||
| 20260508110706 | 57 | 315 | 3.0 | 6.0 | 0.00 | 0.00 | 0.00 | ||
| 20260508110304 | 57 | 328 | 1.0 | 6.0 | 0.00 | 0.00 | 0.00 | ||
| 20260508105902 | 56 | 338 | 2.0 | 3.0 | 0.00 | 0.00 | 0.00 | ||
| 20260508105500 | 56 | 338 | 1.0 | 2.0 | 0.00 | 0.00 | 0.00 | ||
| 20260508105059 | 57 | 335 | 2.0 | 4.0 | 0.00 | 0.00 | 0.00 | ||
| 20260508104658 | 57 | 327 | 4.0 | 6.0 | 0.00 | 0.00 | 0.00 | ||
| 20260508104255 | 56 | 342 | 1.0 | 3.0 | 0.00 | 0.00 | 0.00 | ||
| 20260508103847 | 57 | 351 | 2.0 | 5.0 | 0.00 | 0.00 | 0.00 | ||
| 20260508103445 | 58 | 296 | 1.0 | 3.0 | 0.00 | 0.00 | 0.00 | ||
| 20260508102644 | 57 | 333 | 2.0 | 5.0 | 0.00 | 0.00 | 0.00 | ||
| 20260508102241 | 56 | 307 | 3.0 | 5.0 | 0.00 | 0.00 | 0.00 | ||
| 20260508101840 | 56 | 346 | 3.0 | 5.0 | 0.00 | 0.00 | 0.00 | ||
| 20260508101438 | 55 | 338 | 2.0 | 4.0 | 0.00 | 0.00 | 0.00 | ||
| 20260508101037 | 55 | 332 | 2.0 | 5.0 | 0.00 | 0.00 | 0.00 | ||
| 20260508100635 | 55 | 292 | 3.0 | 4.0 | 0.00 | 0.00 | 0.00 | ||
| 20260508100233 | 55 | 306 | 3.0 | 6.0 | 0.00 | 0.00 | 0.00 | ||
| 20260508095825 | 56 | 292 | 3.0 | 6.0 | 0.00 | 0.00 | 0.00 | ||
| 20260508095423 | 55 | 296 | 3.0 | 5.0 | 0.00 | 0.00 | 0.00 | ||
| 20260508095021 | 55 | 315 | 1.0 | 2.0 | 0.00 | 0.00 | 0.00 | ||
| 20260508094619 | 54 | 315 | 2.0 | 4.0 | 0.00 | 0.00 | 0.00 | ||
| 20260508094218 | 55 | 338 | 0.0 | 2.0 | 0.00 | 0.00 | 0.00 | ||
| 20260508093817 | 55 | 306 | 3.0 | 5.0 | 0.00 | 0.00 | 0.00 | ||
| 20260508093414 | 54 | 323 | 3.0 | 6.0 | 0.00 | 0.00 | 0.00 | ||
| 20260508093013 | 56 | 353 | 1.0 | 5.0 | 0.00 | 0.00 | 0.00 | ||
| 20260508092612 | 54 | 353 | 2.0 | 6.0 | 0.00 | 0.00 | 0.00 | ||
| 20260508092210 | 53 | 335 | 2.0 | 6.0 | 0.00 | 0.00 | 0.00 | ||
| 20260508091802 | 53 | 335 | 4.0 | 7.0 | 0.00 | 0.00 | 0.00 | ||
| 20260508091359 | 53 | 352 | 1.0 | 4.0 | 0.00 | 0.00 | 0.00 | ||
| 20260508090958 | 53 | 338 | 2.0 | 3.0 | 0.00 | 0.00 | 0.00 | ||
| 20260508090557 | 53 | 338 | 3.0 | 5.0 | 0.00 | 0.00 | 0.00 | ||
| 20260508090155 | 54 | 338 | 1.0 | 3.0 | 0.00 | 0.00 | 0.00 | ||
| 20260508085753 | 53 | 351 | 1.0 | 3.0 | 0.00 | 0.00 | 0.00 | ||
| 20260508085351 | 53 | 325 | 2.0 | 6.0 | 0.00 | 0.00 | 0.00 | ||
| 20260508084950 | 54 | 315 | 2.0 | 5.0 | 0.00 | 0.00 | 0.00 | ||
| 20260508084549 | 53 | 315 | 3.0 | 5.0 | 0.00 | 0.00 | 0.00 | ||
| 20260508084146 | 53 | 338 | 2.0 | 5.0 | 0.00 | 0.00 | 0.00 | ||
| 20260508083738 | 52 | 339 | 4.0 | 6.0 | 0.00 | 0.00 | 0.00 | ||
| 20260508083336 | 53 | 319 | 2.0 | 4.0 | 0.00 | 0.00 | 0.00 | ||
| 20260508082935 | 53 | 313 | 2.0 | 6.0 | 0.00 | 0.00 | 0.00 | ||
| 20260508082533 | 52 | 315 | 3.0 | 6.0 | 0.00 | 0.00 | 0.00 | ||
| 20260508082131 | 53 | 303 | 2.0 | 4.0 | 0.00 | 0.00 | 0.00 | ||
| 20260508081730 | 54 | 293 | 1.0 | 5.0 | 0.00 | 0.00 | 0.00 | ||
| 20260508081328 | 53 | 303 | 3.0 | 6.0 | 0.00 | 0.00 | 0.00 | ||
| 20260508080927 | 52 | 292 | 3.0 | 9.0 | 0.00 | 0.00 | 0.00 | ||
| 20260508080525 | 52 | 292 | 3.0 | 5.0 | 0.00 | 0.00 | 0.00 | ||
| 20260508080123 | 52 | 325 | 3.0 | 6.0 | 0.00 | 0.00 | 0.00 | ||
| 20260508075715 | 53 | 338 | 2.0 | 4.0 | 0.00 | 0.00 | 0.00 | ||
| 20260508075314 | 52 | 331 | 1.0 | 4.0 | 0.00 | 0.00 | 0.00 | ||
| 20260508074911 | 52 | 317 | 2.0 | 4.0 | 0.00 | 0.00 | 0.00 | ||
| 20260508074510 | 52 | 338 | 1.0 | 4.0 | 0.00 | 0.00 | 0.00 | ||
| 20260508074109 | 53 | 325 | 3.0 | 4.0 | 0.00 | 0.00 | 0.00 | ||
| 20260508073708 | 52 | 315 | 3.0 | 4.0 | 0.00 | 0.00 | 0.00 | ||
| 20260508073305 | 52 | 320 | 2.0 | 5.0 | 0.00 | 0.00 | 0.00 | ||
| 20260508072904 | 52 | 321 | 2.0 | 5.0 | 0.00 | 0.00 | 0.00 | ||
| 20260508072502 | 52 | 343 | 3.0 | 6.0 | 0.00 | 0.00 | 0.00 | ||
| 20260508072101 | 53 | 338 | 2.0 | 5.0 | 0.00 | 0.00 | 0.00 | ||
| 20260508071651 | 52 | 338 | 2.0 | 3.0 | 0.00 | 0.00 | 0.00 | ||
| 20260508071250 | 52 | 320 | 3.0 | 8.0 | 0.00 | 0.00 | 0.00 | ||
| 20260508070849 | 52 | 340 | 3.0 | 5.0 | 0.00 | 0.00 | 0.00 | ||
| 20260508070448 | 52 | 333 | 3.0 | 5.0 | 0.00 | 0.00 | 0.00 | ||
| 20260508070046 | 53 | 44 | 3.0 | 8.0 | 0.00 | 0.00 | 0.00 | ||
| 20260508065644 | 54 | 67 | 0.0 | 0.0 | 0.00 | 0.00 | 0.00 | ||
| 20260508065242 | 53 | 67 | 1.0 | 2.0 | 0.00 | 0.00 | 0.00 | ||
| 20260508064440 | 53 | 67 | 1.0 | 3.0 | 0.00 | 0.00 | 0.00 | ||
| 20260508064037 | 52 | 67 | 3.0 | 5.0 | 0.00 | 0.00 | 0.00 | ||
| 20260508063629 | 52 | 67 | 3.0 | 4.0 | 0.00 | 0.00 | 0.00 | ||
| 20260508063227 | 53 | 67 | 3.0 | 5.0 | 0.00 | 0.00 | 0.00 | ||
| 20260508062826 | 53 | 67 | 3.0 | 5.0 | 0.00 | 0.00 | 0.00 | ||
| 20260508062424 | 53 | 67 | 3.0 | 5.0 | 0.00 | 0.00 | 0.00 | ||
| 20260508062022 | 54 | 67 | 2.0 | 3.0 | 0.00 | 0.00 | 0.00 | ||
| 20260508061621 | 53 | 67 | 0.0 | 2.0 | 0.00 | 0.00 | 0.00 | ||
| 20260508061219 | 53 | 67 | 0.0 | 0.0 | 0.00 | 0.00 | 0.00 | ||
| 20260508060817 | 52 | 67 | 2.0 | 3.0 | 0.00 | 0.00 | 0.00 | ||
| 20260508060416 | 52 | 67 | 2.0 | 4.0 | 0.00 | 0.00 | 0.00 | ||
| 20260508060014 | 52 | 90 | 3.0 | 5.0 | 0.00 | 0.00 | 0.00 | ||
| 20260508055606 | 52 | 90 | 2.0 | 3.0 | 0.00 | 0.00 | 0.00 | ||
| 20260508055204 | 53 | 90 | 2.0 | 3.0 | 0.00 | 0.00 | 0.00 | ||
| 20260508054802 | 52 | 90 | 2.0 | 4.0 | 0.00 | 0.00 | 0.00 | ||
| 20260508054401 | 52 | 90 | 3.0 | 5.0 | 0.00 | 0.00 | 0.00 | ||
| 20260508053959 | 51 | 92 | 4.0 | 5.0 | 0.00 | 0.00 | 0.00 | ||
| 20260508053558 | 52 | 111 | 1.0 | 2.0 | 0.00 | 0.00 | 0.00 | ||
| 20260508053155 | 52 | 111 | 0.0 | 1.0 | 0.00 | 0.00 | 0.00 | ||
| 20260508052754 | 52 | 111 | 0.0 | 2.0 | 0.00 | 0.00 | 0.00 | ||
| 20260508052353 | 53 | 111 | 1.0 | 3.0 | 0.00 | 0.00 | 0.00 | ||
| 20260508051952 | 53 | 98 | 2.0 | 4.0 | 0.00 | 0.00 | 0.00 | ||
| 20260508051542 | 52 | 67 | 3.0 | 5.0 | 0.00 | 0.00 | 0.00 | ||
| 20260508051141 | 51 | 66 | 3.0 | 6.0 | 0.00 | 0.00 | 0.00 | ||
| 20260508050740 | 51 | 11 | 3.0 | 5.0 | 0.00 | 0.00 | 0.00 | ||
| 20260508050339 | 51 | 30 | 2.0 | 5.0 | 0.00 | 0.00 | 0.00 | ||
| 20260508045936 | 51 | 63 | 4.0 | 8.0 | 0.00 | 0.00 | 0.00 | ||
| 20260508045535 | 51 | 345 | 3.0 | 5.0 | 0.00 | 0.00 | 0.00 | ||
| 20260508045133 | 51 | 310 | 4.0 | 9.0 | 0.00 | 0.00 | 0.00 | ||
| 20260508044732 | 51 | 326 | 4.0 | 7.0 | 0.00 | 0.00 | 0.00 | ||
| 20260508044331 | 51 | 312 | 4.0 | 8.0 | 0.00 | 0.00 | 0.00 | ||
| 20260508043928 | 51 | 317 | 3.0 | 4.0 | 0.00 | 0.00 | 0.00 | ||
| 20260508043520 | 51 | 314 | 3.0 | 5.0 | 0.00 | 0.00 | 0.00 | ||
| 20260508043118 | 51 | 295 | 5.0 | 8.0 | 0.00 | 0.00 | 0.00 | ||
| 20260508042315 | 52 | 306 | 5.0 | 8.0 | 0.00 | 0.00 | 0.00 | ||
| 20260508041913 | 52 | 302 | 4.0 | 9.0 | 0.00 | 0.00 | 0.00 | ||
| 20260508041512 | 51 | 295 | 4.0 | 7.0 | 0.00 | 0.00 | 0.00 | ||
| 20260508041110 | 51 | 310 | 4.0 | 7.0 | 0.00 | 0.00 | 0.00 | ||
| 20260508040708 | 51 | 303 | 4.0 | 8.0 | 0.00 | 0.00 | 0.00 | ||
| 20260508040307 | 51 | 305 | 6.0 | 9.0 | 0.00 | 0.00 | 0.00 | ||
| 20260508035905 | 51 | 299 | 4.0 | 7.0 | 0.00 | 0.00 | 0.00 | ||
| 20260508035457 | 51 | 309 | 5.0 | 8.0 | 0.00 | 0.00 | 0.00 | ||
| 20260508035054 | 52 | 318 | 4.0 | 8.0 | 0.00 | 0.00 | 0.00 | ||
| 20260508034653 | 51 | 295 | 6.0 | 8.0 | 0.00 | 0.00 | 0.00 | ||
| 20260508034252 | 52 | 305 | 5.0 | 9.0 | 0.00 | 0.00 | 0.00 | ||
| 20260508033850 | 52 | 311 | 5.0 | 9.0 | 0.00 | 0.00 | 0.00 | ||
| 20260508033450 | 52 | 301 | 3.0 | 5.0 | 0.00 | 0.00 | 0.00 | ||
| 20260508033046 | 52 | 298 | 5.0 | 7.0 | 0.00 | 0.00 | 0.00 | ||
| 20260508032645 | 52 | 295 | 3.0 | 5.0 | 0.00 | 0.00 | 0.00 | ||
| 20260508032245 | 52 | 307 | 3.0 | 6.0 | 0.00 | 0.00 | 0.00 | ||
| 20260508031843 | 52 | 292 | 4.0 | 7.0 | 0.00 | 0.00 | 0.00 | ||
| 20260508031434 | 52 | 297 | 5.0 | 10.0 | 0.00 | 0.00 | 0.00 |